Regional Weather Roundup
Issued by NWS Newport/Morehead, NC

Current Version | Previous Version | Graphics & Text | Print | Product List | Glossary Off
Versions: 1 2 3 4 5 6 7 8 9 10 11 12 13 14 15 16 17 18 19 20 21 22 23 24 25 26 27 28 29 30 31 32 33 34 35 36 37 38 39 40 41 42 43 44 45 46 47 48 49 50

000
ASUS42 KMHX 280528
RWRMHX
WEATHER ROUNDUP FOR EASTERN NORTH CAROLINA
NATIONAL WEATHER SERVICE NEWPORT/MOREHEAD CITY NC
1200 AM EST SAT FEB 28 2015

NOTE: "FAIR" INDICATES FEW OR NO CLOUDS BELOW 12,000 FEET
WITH NO SIGNIFICANT WEATHER AND/OR OBSTRUCTIONS TO VISIBILITY

NCZ015>017-031-032-045>047-102-103-280600-
NORTH COAST

CITY           SKY/WX    TMP DP  RH WIND       PRES   REMARKS
EDENTON        CLEAR     29  26  87 N3        30.60R
ELIZABETH CITY CLEAR     30  26  85 NE9       30.60R
KITTY HAWK     CLEAR     34  30  86 N9        30.56R
MANTEO         FAIR      34  30  86 N12       30.57S

$$

NCZ045>047-081-094-103-104-280600-
CENTRAL COAST

CITY           SKY/WX    TMP DP  RH WIND       PRES   REMARKS
FRISCO         PTCLDY    36  33  89 VRB6G18   30.54R
SWANQUARTER      N/A     32 N/A N/A NE7       30.53R

$$

NCZ095-097-098-100-101-280600-
SOUTHERN COAST

CITY           SKY/WX    TMP DP  RH WIND       PRES   REMARKS
BEAUFORT       MOCLDY    33  29  85 NE10      30.54S
CEDAR ISLAND     N/A     36 N/A N/A VRB18     30.59R
JACKSONVILLE   PTCLDY    34  28  79 N10       30.55R
PINEY ISLAND     N/A    N/A N/A N/A MISG      30.55R
WILMINGTON     MOCLDY    37  31  78 NE8       30.52R


$$

NCZ011>013-027>030-043-044-078>080-089-090>093-098-280600-
COASTAL PLAIN

CITY           SKY/WX    TMP DP  RH WIND       PRES   REMARKS
AHOSKIE        CLEAR     27  23  85 CALM      30.62R
CLINTON        CLEAR     36  27  70 NE5       30.55R
ELIZABETHTOWN  PTCLDY    35  26  69 CALM      30.53R
GOLDSBORO      CLEAR     32  32  99 NE7       30.55R
GREENVILLE     CLEAR     30  27  86 NE5       30.59R
HAVELOCK       PTCLDY    33  28  81 NE10      30.57R
KENANSVILLE    CLEAR     32  28  84 NE3       30.57R
KINSTON        CLEAR     32  28  88 NE7       30.58R
NEW BERN       CLEAR     31  26  82 NE8       30.58R
RICHLANDS      PTCLDY    30  25  80 NE8       30.56S
ROCKY MOUNT    CLEAR     27  24  89 NE6       30.59R
WASHINGTON     CLEAR     29  26  88 NE5       30.59R
WHITEVILLE     PTCLDY    40  27  59 NE9       30.51R

$$

AMZ130-135-150-152-154-156-158-170-250-252-270-ANZ085-086-088-633-658-670-280600-
MARINE OBSERVATIONS

STATION/POSITION TIME  TEMP    WIND        PRES    WAVE   SWELL
                       AIR SEA DIR/SP/G            HT/PER HT/PER
                 (UTC) (F)     (DEG/KT/KT) (MB)    (FT/S) (FT/S)
CHESAPEAKE LIGHT 0500   31      20/ 19/ 20 1036.4
64 E VA BEACH    0450   39 58   20/ 17/ 21 1034.4    6/11   5/11
DUCK             0500           30/ 19/ 20 1034.7
2 E DUCK         0441      35                N/A     5/11   2/11
10 NE DUCK       NOT AVBL
OREGON INLET     0500          360/ 12/ 15 1034.8
HATTERAS CG      0412   38 41   20/ 16/ 20 1033.9
CAPE LOOKOUT     0500   36      20/ 14/ 17 1033.6
BEAUFORT LAB     0500   34 41   20/  9/ 14 1033.2
27 SE WRIGHTSVLE NOT AVBL
5 SE WRIGHTSVLE  NOT AVBL
225 S CAPE HAT   0450   65 70   30/ 17/ 19 1027.6   10/10   8/10
41 SE CHARLESTON 0450   54 63   50/ 19/ 25 1029.9    6/ 6   3/11

$$


USA.gov is the U.S. government's official web portal to all federal, state and local government web resources and services.